SKW5653 KORD-KMSP

Flight info

Callsign SKW5653
Flight time 0h 57m
Altitude 34000
Route PMPKN NEATO DLLAN RONIC KAMMA KKILR4
Aircraft E75L/M-SDE3GILORVW/S

Departure

Time 2026-05-03 23:23
Airport Chicago O'Hare International Airport (KORD)

Arrival

Time 2026-05-04 00:21
Airport Minneapolis–Saint Paul International Airport / Wold–Chamberlain Field (KMSP)
Time Latitude Longitude Altitude Speed Heading
2026-05-03 23:13 41.97370 -87.88897 667 ft 0 kts 360°
2026-05-03 23:15 41.97352 -87.88898 667 ft 0 kts
2026-05-03 23:18 41.97339 -87.88898 665 ft 4 kts
2026-05-03 23:18 41.97312 -87.88901 667 ft 4 kts
2026-05-03 23:18 41.97286 -87.88909 667 ft 4 kts 26°
2026-05-03 23:19 41.97272 -87.88931 667 ft 2 kts 89°
2026-05-03 23:19 41.97272 -87.88932 667 ft 0 kts 89°
2026-05-03 23:20 41.97272 -87.88931 667 ft 1 kts 89°
2026-05-03 23:20 41.97266 -87.88920 667 ft 2 kts 158°
2026-05-03 23:20 41.97205 -87.88907 667 ft 12 kts 142°
2026-05-03 23:21 41.97196 -87.88812 667 ft 17 kts 90°
2026-05-03 23:21 41.97197 -87.88639 667 ft 20 kts 90°
2026-05-03 23:21 41.97196 -87.88447 667 ft 21 kts 89°
2026-05-03 23:21 41.97196 -87.88240 667 ft 23 kts 90°
2026-05-03 23:22 41.97098 -87.88036 667 ft 13 kts 181°
2026-05-03 23:22 41.97005 -87.88038 669 ft 13 kts 179°
2026-05-03 23:22 41.96922 -87.88062 668 ft 13 kts 219°
2026-05-03 23:23 41.96775 -87.88229 668 ft 61 kts 221°
2026-05-03 23:23 41.96258 -87.88843 689 ft 132 kts 222°
2026-05-03 23:23 41.95507 -87.89763 1286 ft 157 kts 219°
2026-05-03 23:23 41.94791 -87.90909 2186 ft 166 kts 249°
2026-05-03 23:24 41.94609 -87.92437 3153 ft 166 kts 263°
2026-05-03 23:24 41.94521 -87.94039 3942 ft 180 kts 264°
2026-05-03 23:24 41.94585 -87.95781 4751 ft 200 kts 287°
2026-05-03 23:24 41.95560 -87.97157 5661 ft 223 kts 328°
2026-05-03 23:25 41.97076 -87.97576 6907 ft 216 kts 352°
2026-05-03 23:25 41.98519 -87.97443 8052 ft 213 kts
2026-05-03 23:25 42.00113 -87.97098 8221 ft 248 kts
2026-05-03 23:25 42.01919 -87.96895 8474 ft 274 kts 359°
2026-05-03 23:26 42.03863 -87.96665 9172 ft 284 kts
2026-05-03 23:26 42.05827 -87.96390 10097 ft 284 kts
2026-05-03 23:26 42.07849 -87.96127 10525 ft 304 kts
2026-05-03 23:26 42.09994 -87.95869 10883 ft 321 kts
2026-05-03 23:27 42.12241 -87.95598 11630 ft 326 kts
2026-05-03 23:27 42.14504 -87.95322 12548 ft 327 kts
2026-05-03 23:27 42.16774 -87.95050 13540 ft 328 kts
2026-05-03 23:27 42.19057 -87.94776 14411 ft 332 kts
2026-05-03 23:28 42.21369 -87.94504 15239 ft 336 kts
2026-05-03 23:28 42.23708 -87.94228 16060 ft 340 kts
2026-05-03 23:28 42.26048 -87.93952 16839 ft 344 kts
2026-05-03 23:28 42.28447 -87.93664 17631 ft 349 kts
2026-05-03 23:29 42.30874 -87.93386 18373 ft 351 kts 358°
2026-05-03 23:29 42.33301 -87.93512 19031 ft 350 kts 351°
2026-05-03 23:29 42.35739 -87.93815 19709 ft 353 kts 350°
2026-05-03 23:29 42.38192 -87.94145 20350 ft 356 kts 350°
2026-05-03 23:30 42.40662 -87.94472 21003 ft 358 kts 349°
2026-05-03 23:30 42.43148 -87.94800 21614 ft 361 kts 349°
2026-05-03 23:30 42.45623 -87.95125 22217 ft 364 kts 349°
2026-05-03 23:30 42.48158 -87.95458 22856 ft 367 kts 350°
2026-05-03 23:31 42.50707 -87.95772 23481 ft 370 kts 350°
2026-05-03 23:31 42.53284 -87.96079 24014 ft 373 kts 350°
2026-05-03 23:31 42.55880 -87.96390 24549 ft 376 kts 350°
2026-05-03 23:31 42.58488 -87.96703 25078 ft 378 kts 350°
2026-05-03 23:32 42.61115 -87.97023 25693 ft 378 kts 350°
2026-05-03 23:32 42.63736 -87.97324 26190 ft 381 kts 351°
2026-05-03 23:32 42.66394 -87.97513 26727 ft 382 kts 353°
2026-05-03 23:32 42.69043 -87.97668 27384 ft 380 kts 352°
2026-05-03 23:33 42.71628 -87.97924 28011 ft 374 kts 345°
2026-05-03 23:33 42.74037 -87.99089 28616 ft 364 kts 328°
2026-05-03 23:33 42.76241 -88.00763 29273 ft 363 kts 328°
2026-05-03 23:33 42.78450 -88.02415 29872 ft 361 kts 328°
2026-05-03 23:34 42.80638 -88.04073 30385 ft 360 kts 328°
2026-05-03 23:34 42.82822 -88.05757 30840 ft 360 kts 328°
2026-05-03 23:34 42.84988 -88.07444 31305 ft 359 kts 327°
2026-05-03 23:34 42.87148 -88.09135 31778 ft 358 kts 327°
2026-05-03 23:35 42.89275 -88.10796 32245 ft 356 kts 327°
2026-05-03 23:35 42.91416 -88.12477 32684 ft 355 kts 327°
2026-05-03 23:35 42.93550 -88.14157 33120 ft 354 kts 327°
2026-05-03 23:35 42.95679 -88.15837 33534 ft 353 kts 327°
2026-05-03 23:36 42.97799 -88.17515 33899 ft 354 kts 327°
2026-05-03 23:36 42.99964 -88.19234 33880 ft 365 kts 327°
2026-05-03 23:36 43.04466 -88.22821 33797 ft 386 kts 327°
2026-05-03 23:37 43.09191 -88.26579 33769 ft 403 kts 327°
2026-05-03 23:37 43.13436 -88.31588 33797 ft 409 kts 309°
2026-05-03 23:38 43.17070 -88.37617 33748 ft 410 kts 309°
2026-05-03 23:38 43.20661 -88.43696 33729 ft 411 kts 309°
2026-05-03 23:39 43.24221 -88.49778 33720 ft 413 kts 309°
2026-05-03 23:39 43.27815 -88.55936 33726 ft 414 kts 309°
2026-05-03 23:40 43.31412 -88.62115 33747 ft 414 kts 309°
2026-05-03 23:40 43.35008 -88.68299 33746 ft 414 kts 309°
2026-05-03 23:41 43.38599 -88.74486 33748 ft 414 kts 309°
2026-05-03 23:41 43.42159 -88.80639 33748 ft 414 kts 309°
2026-05-03 23:42 43.45757 -88.86865 33734 ft 416 kts 309°
2026-05-03 23:42 43.49358 -88.93116 33743 ft 417 kts 309°
2026-05-03 23:43 43.52956 -88.99372 33731 ft 417 kts 309°
2026-05-03 23:43 43.56523 -89.05591 33725 ft 416 kts 309°
2026-05-03 23:44 43.60118 -89.11865 33711 ft 417 kts 309°
2026-05-03 23:44 43.63708 -89.18145 33695 ft 417 kts 309°
2026-05-03 23:45 43.67296 -89.24443 33699 ft 417 kts 309°
2026-05-03 23:45 43.70855 -89.30696 33710 ft 417 kts 309°
2026-05-03 23:46 43.74435 -89.36999 33706 ft 417 kts 309°
2026-05-03 23:46 43.78012 -89.43309 33706 ft 417 kts 309°
2026-05-03 23:47 43.81584 -89.49633 33707 ft 417 kts 309°
2026-05-03 23:47 43.85127 -89.55917 33699 ft 416 kts 309°
2026-05-03 23:48 43.88683 -89.62239 33700 ft 416 kts 309°
2026-05-03 23:48 43.92241 -89.68568 33704 ft 416 kts 309°
2026-05-03 23:49 43.95792 -89.74910 33693 ft 416 kts 309°
2026-05-03 23:49 43.99313 -89.81206 33705 ft 416 kts 309°
2026-05-03 23:50 44.02285 -89.86526 33707 ft 416 kts 308°
2026-05-03 23:50 44.06386 -89.93888 33704 ft 413 kts 309°
2026-05-03 23:51 44.09951 -90.00168 33688 ft 413 kts 310°
2026-05-03 23:51 44.13602 -90.06341 33692 ft 413 kts 310°
2026-05-03 23:52 44.17209 -90.12490 33694 ft 413 kts 310°
2026-05-03 23:52 44.20834 -90.18691 33692 ft 413 kts 310°
2026-05-03 23:53 44.24450 -90.24904 33686 ft 411 kts 310°
2026-05-03 23:53 44.28024 -90.31060 33699 ft 411 kts 310°
2026-05-03 23:54 44.31622 -90.37266 33700 ft 411 kts 310°
2026-05-03 23:54 44.34958 -90.43721 33720 ft 413 kts 297°
2026-05-03 23:55 44.37237 -90.51115 33702 ft 414 kts 295°
2026-05-03 23:55 44.39460 -90.58548 33710 ft 414 kts 295°
2026-05-03 23:56 44.41649 -90.65940 33707 ft 414 kts 295°
2026-05-03 23:56 44.43847 -90.73372 33700 ft 413 kts 295°
2026-05-03 23:57 44.44941 -90.77073 33517 ft 408 kts 295°
2026-05-03 23:57 44.46001 -90.80670 33273 ft 390 kts 295°
2026-05-03 23:57 44.47014 -90.84120 32836 ft 378 kts 296°
2026-05-03 23:57 44.47993 -90.87451 32316 ft 371 kts 296°
2026-05-03 23:58 44.48959 -90.90747 31809 ft 363 kts 296°
2026-05-03 23:58 44.49910 -90.93988 31369 ft 356 kts 297°
2026-05-03 23:58 44.50852 -90.97192 30869 ft 358 kts 297°
2026-05-03 23:58 44.51813 -91.00458 30414 ft 367 kts 297°
2026-05-03 23:59 44.52792 -91.03796 29897 ft 374 kts 298°
2026-05-03 23:59 44.53782 -91.07187 29376 ft 377 kts 298°
2026-05-03 23:59 44.54772 -91.10582 28894 ft 377 kts 297°
2026-05-03 23:59 44.55750 -91.13948 28416 ft 378 kts 297°
2026-05-04 00:00 44.56742 -91.17365 27916 ft 378 kts 297°
2026-05-04 00:00 44.57737 -91.20787 27385 ft 380 kts 297°
2026-05-04 00:00 44.58734 -91.24223 26910 ft 381 kts 297°
2026-05-04 00:00 44.59736 -91.27677 26398 ft 382 kts 296°
2026-05-04 00:01 44.60734 -91.31132 25868 ft 383 kts 296°
2026-05-04 00:01 44.61733 -91.34594 25371 ft 381 kts 296°
2026-05-04 00:01 44.62718 -91.38024 24872 ft 375 kts 296°
2026-05-04 00:01 44.63683 -91.41383 24379 ft 368 kts 296°
2026-05-04 00:02 44.64624 -91.44640 23905 ft 362 kts 296°
2026-05-04 00:02 44.65566 -91.47906 23436 ft 360 kts 296°
2026-05-04 00:02 44.66504 -91.51157 22938 ft 357 kts 296°
2026-05-04 00:02 44.67430 -91.54380 22484 ft 355 kts 295°
2026-05-04 00:03 44.68353 -91.57594 22019 ft 354 kts 295°
2026-05-04 00:03 44.69271 -91.60796 21546 ft 352 kts 295°
2026-05-04 00:03 44.70181 -91.63975 21086 ft 350 kts 295°
2026-05-04 00:03 44.71084 -91.67134 20620 ft 347 kts 294°
2026-05-04 00:04 44.71980 -91.70267 20171 ft 345 kts 294°
2026-05-04 00:04 44.72857 -91.73342 19724 ft 342 kts 294°
2026-05-04 00:04 44.73740 -91.76445 19265 ft 340 kts 294°
2026-05-04 00:04 44.74616 -91.79529 18821 ft 338 kts 294°
2026-05-04 00:05 44.75485 -91.82587 18375 ft 336 kts 293°
2026-05-04 00:05 44.76348 -91.85627 17921 ft 334 kts 293°
2026-05-04 00:05 44.77199 -91.88639 17510 ft 329 kts 293°
2026-05-04 00:05 44.78013 -91.91624 17317 ft 331 kts 292°
2026-05-04 00:06 44.78822 -91.94620 16847 ft 330 kts 292°
2026-05-04 00:06 44.79631 -91.97626 16411 ft 327 kts 292°
2026-05-04 00:06 44.80439 -92.00604 15982 ft 324 kts 292°
2026-05-04 00:06 44.81236 -92.03560 15559 ft 322 kts 292°
2026-05-04 00:07 44.82030 -92.06496 15125 ft 320 kts 292°
2026-05-04 00:07 44.82816 -92.09403 14704 ft 314 kts 292°
2026-05-04 00:07 44.83581 -92.12244 14287 ft 306 kts 292°
2026-05-04 00:07 44.84326 -92.15008 13889 ft 297 kts 292°
2026-05-04 00:08 44.85037 -92.17661 13496 ft 290 kts 288°
2026-05-04 00:08 44.85352 -92.20430 13135 ft 283 kts 278°
2026-05-04 00:08 44.85537 -92.23157 12753 ft 276 kts 278°
2026-05-04 00:08 44.85714 -92.25820 12391 ft 271 kts 278°
2026-05-04 00:09 44.85878 -92.28451 12027 ft 269 kts 277°
2026-05-04 00:09 44.86044 -92.31078 11703 ft 269 kts 277°
2026-05-04 00:09 44.86208 -92.33714 11327 ft 270 kts 277°
2026-05-04 00:09 44.86342 -92.36351 10967 ft 270 kts 276°
2026-05-04 00:10 44.86465 -92.38985 10606 ft 269 kts 276°
2026-05-04 00:10 44.86585 -92.41613 10257 ft 268 kts 276°
2026-05-04 00:10 44.86706 -92.44198 9909 ft 267 kts 276°
2026-05-04 00:10 44.86834 -92.46805 9552 ft 266 kts 275°
2026-05-04 00:11 44.86553 -92.49387 9202 ft 271 kts 252°
2026-05-04 00:11 44.85745 -92.51790 8858 ft 272 kts 247°
2026-05-04 00:11 44.84884 -92.54177 8465 ft 273 kts 246°
2026-05-04 00:11 44.84023 -92.56549 8109 ft 271 kts 246°
2026-05-04 00:12 44.83168 -92.58907 7742 ft 269 kts 246°
2026-05-04 00:12 44.82314 -92.61252 7393 ft 269 kts 246°
2026-05-04 00:12 44.81485 -92.63544 7206 ft 263 kts 246°
2026-05-04 00:12 44.80651 -92.65830 7085 ft 263 kts 246°
2026-05-04 00:13 44.79812 -92.68120 6970 ft 261 kts 246°
2026-05-04 00:13 44.78998 -92.70323 6945 ft 246 kts 246°
2026-05-04 00:13 44.78231 -92.72400 6896 ft 233 kts 246°
2026-05-04 00:13 44.77499 -92.74401 6707 ft 227 kts 248°
2026-05-04 00:14 44.77150 -92.76487 6579 ft 216 kts 275°
2026-05-04 00:14 44.77272 -92.77859 6523 ft 213 kts 280°
2026-05-04 00:14 44.77497 -92.79926 6383 ft 217 kts 280°
2026-05-04 00:14 44.77800 -92.82736 6002 ft 221 kts 280°
2026-05-04 00:15 44.78034 -92.84869 5691 ft 221 kts 280°
2026-05-04 00:15 44.78266 -92.86988 5454 ft 217 kts 279°
2026-05-04 00:15 44.78487 -92.89087 5202 ft 216 kts 279°
2026-05-04 00:15 44.78705 -92.91167 4949 ft 215 kts 279°
2026-05-04 00:16 44.78850 -92.92545 4775 ft 214 kts 279°
2026-05-04 00:16 44.79076 -92.94618 4525 ft 214 kts 279°
2026-05-04 00:16 44.79293 -92.96677 4277 ft 212 kts 278°
2026-05-04 00:16 44.79513 -92.98730 4003 ft 211 kts 280°
2026-05-04 00:17 44.80245 -93.01234 3688 ft 209 kts 299°
2026-05-04 00:17 44.80991 -93.02991 3440 ft 208 kts 301°
2026-05-04 00:17 44.81492 -93.04111 3466 ft 192 kts 301°
2026-05-04 00:17 44.82428 -93.06206 2986 ft 185 kts 300°
2026-05-04 00:18 44.82859 -93.07211 2826 ft 178 kts 300°
2026-05-04 00:18 44.83492 -93.08669 2579 ft 171 kts 299°
2026-05-04 00:18 44.84095 -93.10066 2371 ft 162 kts 299°
2026-05-04 00:18 44.84656 -93.11360 2152 ft 147 kts 300°
2026-05-04 00:19 44.85164 -93.12532 1950 ft 135 kts 299°
2026-05-04 00:19 44.85648 -93.13653 1795 ft 135 kts 299°
2026-05-04 00:19 44.86134 -93.14776 1634 ft 132 kts 299°
2026-05-04 00:19 44.86600 -93.15876 1431 ft 130 kts 299°
2026-05-04 00:20 44.87064 -93.16970 1273 ft 129 kts 300°
2026-05-04 00:20 44.87532 -93.18013 1137 ft 126 kts 300°
2026-05-04 00:20 44.87983 -93.19065 931 ft 125 kts 299°
2026-05-04 00:20 44.88423 -93.20088 823 ft 113 kts 300°
2026-05-04 00:21 44.88757 -93.20856 822 ft 64 kts 301°
2026-05-04 00:21 44.88833 -93.21113 824 ft 15 kts 250°
2026-05-04 00:21 44.88806 -93.21209 820 ft 4 kts 225°
2026-05-04 00:21 44.88778 -93.21200 823 ft 6 kts 136°
2026-05-04 00:22 44.88748 -93.21133 821 ft 10 kts 121°
2026-05-04 00:22 44.88703 -93.21027 822 ft 15 kts 121°
2026-05-04 00:22 44.88642 -93.20887 821 ft 18 kts 121°
2026-05-04 00:22 44.88572 -93.20727 821 ft 21 kts 121°
2026-05-04 00:23 44.88498 -93.20556 821 ft 18 kts 122°
2026-05-04 00:23 44.88429 -93.20399 821 ft 17 kts 122°
2026-05-04 00:23 44.88370 -93.20267 823 ft 13 kts 131°
2026-05-04 00:23 44.88310 -93.20232 822 ft 9 kts 216°
2026-05-04 00:24 44.88246 -93.20266 823 ft 7 kts 194°
2026-05-04 00:24 44.88222 -93.20296 823 ft 4 kts 245°
2026-05-04 00:24 44.88214 -93.20318 823 ft 1 kts 242°
2026-05-04 00:24 44.88212 -93.20323 823 ft 0 kts 243°